Regional Weather Roundup
Issued by NWS

Home | Current Version | Previous Version | Graphics & Text | Print | Product List | Glossary On
Versions: 1 2 3 4 5 6 7 8 9 10 11 12 13 14 15 16 17 18 19 20 21 22 23 24 25 26 27 28 29 30 31 32 33 34 35 36 37 38 39 40 41 42 43 44 45 46 47 48 49 50
000
ASUS43 KOAX 181510
RWRNE

WEATHER ROUNDUP FOR NEBRASKA
NATIONAL WEATHER SERVICE OMAHA NE
900 AM CST SUN FEB 18 2018

NOTES: SATELLITE DATA IS BEING USED TO AUGMENT CLOUD COVER ABOVE
       12000 FEET.
       "FAIR" INDICATES FEW OR NO CLOUDS BELOW 12,000 FEET WITH NO
       SIGNIFICANT WEATHER AND/OR OBSTRUCTIONS TO VISIBILITY.


NEZ001>004-019>022-054>056-181600-
NEBRASKA PANHANDLE

CITY           SKY/WX    TMP DP  RH WIND       PRES   REMARKS
SCOTTSBLUFF    PTSUNNY   53  14  21 SW15      29.50S
ALLIANCE       CLOUDY    37  22  54 W5        29.49R WCI  33
CHADRON        PTSUNNY   34  26  72 NE20G29   29.51R WCI  23
GORDON         FAIR      43  22  44 NW15G26   29.49R
KIMBALL        PTSUNNY   40  17  39 SW9       29.54S WCI  34
SIDNEY         CLOUDY    40  19  43 SW10      29.54R WCI  33
$$

NEZ057>060-069>072-079>082-181600-
SOUTHWEST NEBRASKA

CITY           SKY/WX    TMP DP  RH WIND       PRES   REMARKS
NORTH PLATTE   CLOUDY    38  25  59 S16       29.57F WCI  29
IMPERIAL       CLOUDY    35  24  64 SW6       29.57R WCI  30
LEXINGTON      CLOUDY    41  26  56 S10G22    29.63S
MCCOOK         CLOUDY    41  28  60 S18G30    29.59F
OGALLALA       CLOUDY    33  25  72 S3        29.54F
$$

NEZ005>010-023>029-035>040-094-181600-
NORTH CENTRAL NEBRASKA

CITY           SKY/WX    TMP DP  RH WIND       PRES   REMARKS
VALENTINE      CLOUDY    41  23  48 SW17      29.45R
AINSWORTH      CLOUDY    38  24  55 S22G29    29.48S WCI  28
BROKEN BOW     CLOUDY    38  25  59 S14       29.58F WCI  30
O`NEILL        CLOUDY    41  25  52 S21G26    29.54F
ORD            CLOUDY    41  25  53 S17G28    29.60S
THEDFORD       CLOUDY    38  23  54 S9        29.54F WCI  32
$$

NEZ041-046>049-061>064-073>077-083>087-181600-
SOUTH CENTRAL NEBRASKA

CITY           SKY/WX    TMP DP  RH WIND       PRES   REMARKS
GRAND ISLAND   CLOUDY    44  23  43 S25G37    29.68F
AURORA         CLOUDY    39  23  52 S18G24    29.71F WCI  30
HASTINGS       CLOUDY    42  21  43 S15G26    29.71F
HEBRON         CLOUDY    45  27  50 S24G31    29.80F
HOLDREGE       CLOUDY    43  26  51 S15G24    29.65S
KEARNEY        CLOUDY    43  25  49 S18       29.68S
YORK           CLOUDY    41  27  56 S26G36    29.73F
$$

NEZ011>018-030>034-042>045-181600-
NORTHEAST NEBRASKA

CITY           SKY/WX    TMP DP  RH WIND       PRES   REMARKS
NORFOLK        MOSUNNY   41  25  53 S33G53    29.60F
ALBION         CLOUDY    41  28  61 S15       29.65S
BLAIR          CLOUDY    40  27  59 S25G35    29.78F WCI  30
COLUMBUS       CLOUDY    40  25  55 S21G30    29.71F WCI  30
FREMONT        CLOUDY    40  26  57 S14G21    29.79R WCI  33
TEKAMAH        SUNNY     37  27  67 S24       29.76F WCI  26
WAYNE          MOSUNNY   40  26  55 S31G40    29.63F WCI  29
$$

NEZ050>053-065>068-078-088>093-181600-
SOUTHEAST NEBRASKA

CITY           SKY/WX    TMP DP  RH WIND       PRES   REMARKS
LINCOLN        CLOUDY    44  26  49 S28G39    29.78F
OMAHA EPPLEY   CLOUDY    40  27  59 S24       29.81F WCI  29
BEATRICE       CLOUDY    44  28  53 S23G30    29.85S
FALLS CITY     CLOUDY    42  32  67 S20G33    29.93F
NEBRASKA CITY  CLOUDY    41  33  74 S21G28    29.87F
PLATTSMOUTH    CLOUDY    40  30  65 S24G31    29.83F WCI  30
$$

NEZ044-045-051>053-067-181600-
OMAHA AREA

CITY           SKY/WX    TMP DP  RH WIND       PRES   REMARKS
OMAHA EPPLEY   CLOUDY    40  27  59 S24       29.81F WCI  29
BLAIR          CLOUDY    40  27  59 S25G35    29.78F WCI  30
FREMONT        CLOUDY    40  26  57 S14G21    29.79R WCI  33
MILLARD        CLOUDY    42  28  58 S12G17    29.82F
OFFUTT AFB     CLOUDY    39  28  66 SE15G21   29.83F WCI  30
PLATTSMOUTH    CLOUDY    40  30  65 S24G31    29.83F WCI  30
WAHOO          FAIR      42  26  53 S22       29.80R
$$



USA.gov is the U.S. government's official web portal to all federal, state and local government web resources and services.